Regional Weather Roundup
Issued by NWS Charleston, SC

Current Version | Previous Version | Graphics & Text | Print | Product List | Glossary On
Versions: 1 2 3 4 5 6 7 8 9 10 11 12 13 14 15 16 17 18 19 20 21 22 23 24 25 26 27 28 29 30 31 32 33 34 35 36 37 38 39 40 41 42 43 44 45 46 47 48 49 50
000
ASUS42 KCHS 170210
RWRCHS
REGIONAL WEATHER ROUNDUP
NATIONAL WEATHER SERVICE CHARLESTON SC
1000 PM EDT TUE SEP 16 2014

NOTE: "FAIR" INDICATES FEW OR NO CLOUDS BELOW 12,000 FEET WITH NO
SIGNIFICANT WEATHER AND/OR OBSTRUCTIONS TO VISIBILITY.

NOT ALL STATIONS ARE QUALITY CONTROLLED BY THE NATIONAL
WEATHER SERVICE. USE DATA WITH CAUTION...ESPECIALLY
DEWPOINT OBSERVATIONS.

SCZ027-030-031-034>040-042>050-170300-
...SOUTH CAROLINA...

CITY           SKY/WX    TMP DP  RH WIND       PRES   REMARKS
N CHARLESTON   CLOUDY    74  71  91 N3        29.94F
WATERFRONT PRK   N/A     77 N/A N/A NW6         N/A
FORT JOHNSON   NOT AVBL
MOUNT PLEASANT FAIR      73  72  94 CALM      29.94F FOG
JOHNS ISLAND   PTCLDY    73  73 100 CALM      29.95F
PINOPOLIS        N/A     75  70  83 CALM      29.88F
MONCKS CORNER    N/A     72  72 100 CALM      29.95F
SUMMERVILLE    FAIR      72  72 100 CALM      29.95F
BEAUFORT MCAS  RAIN      75  72  90 SW3       29.97F
BEAUFORT ARPT  LGT RAIN  73  73 100 N6        29.96F
HILTON HEAD IS LGT RAIN  75  75 100 N5        29.98F
GEORGETOWN     NOT AVBL
WALTERBORO     CLOUDY    73 N/A N/A CALM      29.97F
ORANGEBURG     MOCLDY    72  69  90 SW6       29.96F
BARNWELL       FAIR      75  72  88 SE12      29.99R
AIKEN          CLOUDY    75  73  94 N18G29    30.01R
MANNING        FAIR      73  73 100 CALM      29.96F
KINGSTREE      NOT AVBL
COLUMBIA       PTCLDY    78  70  76 S13       29.95S
SUMTER         PTCLDY    74  68  83 S6        29.94F
FLORENCE       CLEAR     75  71  87 SW6       29.95F
MYRTLE BEACH   MOCLDY    75  72  88 SW6       29.96F
N MYRTLE BEACH PTCLDY    79  71  76 S5        29.95F

$$

GAZ063-065-086>088-099>101-113>116-118-119-134-136>141-150-170300-
...GEORGIA...

CITY           SKY/WX    TMP DP  RH WIND       PRES   REMARKS
SAVANNAH ARPT  TSTM      73  67  81 NW5       29.98R
HUNTER AAF     CLOUDY    72  70  94 NE2       29.95S THUNDER
FORT STEWART   CLOUDY    76  70  82 N9        29.97R
STATESBORO     NOT AVBL
SYLVANIA       CLOUDY    77  75  93 E9        30.00R
CLAXTON        DRIZZLE   77  75  94 CALM      29.99R
THOMSON        CLEAR     76  76 100 CALM      30.01R
AUGUSTA-BUSH   MOCLDY    75  72  90 SW5       29.94S
AUGUSTA-DANIEL PTCLDY    82  70  66 W3        29.96S
SWAINSBORO     FAIR      72  72 100 CALM      29.98R
VIDALIA        MOCLDY    72  70  94 SW6       29.99S
ALMA           MOCLDY    71  69  93 W3        29.97S
WAYCROSS       DRIZZLE   74  73  97 SW5       29.97S
JESUP          FAIR      77  73  88 CALM      29.97R
BRUNSWICK      CLOUDY    77  72  83 SW5       29.97R
SAINT SIMONS   CLOUDY    76  74  93 SW6       29.96R

$$

SCZ027-028-034-036>038-045-046-048>050-GAZ119-141-170300-
...LAKE AND SUPPLEMENTAL COASTAL OBSERVATIONS...

STATION/POSITION TIME  TEMP    WIND        PRES    WAVE   SWELL
                       AIR SEA DIR/SP/G            HT/PER HT/PER/DIR
                 (UTC) (F)     (DEG/KT/KT) (MB)    (FT/S) (FT/S/D)
UPR LAKE MARION  NOT AVBL
WINYAH BAY       0100   74     250/  4     1015.0S
LAKE MURRAY      0100   81     130/  5/  9 1013.5R
ACE BASIN NERRS  0100   73      20/  1     1015.0S
FORT PULASKI     0200   76     340/  7/  9 1014.7F
SAPELO ISLAND    0100   79     240/  6     1015.0S

$$

ANZ835-935-AMZ111-154-330-350-352-354-374-450-454-472-170300-
...C-MAN AND BUOY OBSERVATIONS...

STATION/POSITION TIME  TEMP    WIND        PRES    WAVE   SWELL
                       AIR SEA DIR/SP/G            HT/PER HT/PER/DIR
                 (UTC) (F)     (DEG/KT/KT) (MB)    (FT/S) (FT/S/D)
FOLLY BEACH CMAN 0100   74     320/  5/  7 1015.7R
BUOY 41004       0200   79 83   20/  4/  6 1014.3F   1/12   2/12
BUOY 41008       0200   81 85  230/  8/ 10 1014.2S   1/ 8   2/ 80/ 8
5E ST. MARYS GA  0200      84                N/A     2/13   2/100/13
FRYING PAN BUOY  NOT AVBL
BUOY 41025       0200   77     280/  2/  6 1014.6R   2/12   2/ 70/12
CAPE LOOKOUT NC  0100   78     200/  5/  6 1014.5R
BUOY 41002       0051   78 82  140/ 10/ 12 1015.0S   4/14   3/ 90/14
BUOY 41010       0200   81 85  230/  2/  4 1015.7R   3/ 7   2/ 40/ 7
BUOY 41012       NOT AVBL
ST AUGUSTINE FL  0200   75     240/  5/  7 1015.0F
CAPERS NEARSHORE 0100   75     360/  4/  6   N/A
FRIPP NEARSHORE  NOT AVBL


$$


USA.gov is the U.S. government's official web portal to all federal, state and local government web resources and services.